START_TIME,STEP,MOV.,M6,t_acc.,M7,t_acc.,M19,t_acc.,H36,t_acc.
1979-08-03 21:00:25.820 ,0,0,0.,12.0,0.,12.0,0.,12.0,0.,12.0
1979-08-03 21:00:37.820 ,0,0,0.,12.0,0.,12.0,0.,12.0,0.,12.0
1979-08-03 21:00:49.820 ,0,1,0.,12.0,0.,12.0,0.,12.0,0.,12.0
1979-08-03 21:01:01.820 ,0,1,0.,12.0,0.,12.0,0.,12.0,0.,12.0
1979-08-03 21:01:13.810 ,0,0,0.,12.0,0.,12.0,0.,12.0,0.,12.0
1979-08-03 21:01:25.820 ,0,0,0.,12.0,0.,12.0,0.,12.0,0.,12.0
1979-08-03 21:01:37.820 ,1,1,0.,12.0,0.,12.0,0.,12.0,0.,12.0
1979-08-03 21:01:49.820 ,1,1,0.,12.0,0.,12.0,0.,12.0,0.,12.0
1979-08-03 21:02:01.810 ,1,0,0.,12.0,0.,12.0,0.,12.0,0.,12.0
1979-08-03 21:02:13.820 ,1,0,0.,12.0,0.,12.0,0.,12.0,0.,12.0
1979-08-03 21:02:25.820 ,2,1,0.,12.0,0.,12.0,0.,12.0,0.,12.0
1979-08-03 21:02:37.820 ,2,1,0.,12.0,0.,12.0,0.,12.0,0.,12.0
1979-08-03 21:02:49.820 ,2,0,0.,12.0,0.,12.0,0.,12.0,0.,12.0
1979-08-03 21:03:01.820 ,2,0,0.,12.0,0.,12.0,0.,12.0,0.,12.0
1979-08-03 21:03:13.820 ,3,1,0.,12.0,0.,12.0,0.,12.0,0.,12.0
1979-08-03 21:03:25.820 ,3,1,0.,12.0,0.,12.0,0.,12.0,0.,12.0
1979-08-03 21:03:37.820 ,3,0,0.,12.0,0.,12.0,0.,12.0,0.,12.0
1979-08-03 21:03:49.820 ,3,0,0.,12.0,0.,12.0,0.,12.0,0.,12.0
1979-08-03 21:04:01.810 ,4,1,0.,12.0,0.,12.0,0.,12.0,0.,12.0
1979-08-03 21:04:13.810 ,4,1,0.,12.0,0.,12.0,0.,12.0,0.,12.0
1979-08-03 21:04:25.810 ,4,0,0.,12.0,0.,12.0,0.,12.0,0.,12.0
1979-08-03 21:04:37.810 ,4,0,0.,12.0,0.,12.0,0.,12.0,0.,12.0
1979-08-03 21:04:49.810 ,5,1,0.,12.0,0.,12.0,0.,12.0,0.,12.0
1979-08-03 21:05:01.810 ,5,1,0.,12.0,0.,12.0,0.,12.0,0.,12.0
1979-08-03 21:05:13.810 ,5,0,0.,12.0,0.,12.0,0.,12.0,0.,12.0
1979-08-03 21:05:25.810 ,5,0,0.,12.0,0.,12.0,0.,12.0,0.,12.0
1979-08-03 21:05:37.810 ,6,1,0.,12.0,0.,12.0,0.,12.0,0.,12.0
1979-08-03 21:05:49.810 ,6,1,0.,12.0,0.,12.0,0.,12.0,0.,12.0
1979-08-03 21:06:01.810 ,6,0,0.,12.0,0.,12.0,0.,12.0,0.,12.0
1979-08-03 21:06:13.810 ,6,0,0.,12.0,0.,12.0,0.,12.0,0.,12.0
1979-08-03 21:06:25.810 ,7,0,0.,12.0,0.,12.0,0.,12.0,0.,12.0
1979-08-03 21:06:37.810 ,7,0,0.,12.0,0.,12.0,0.,12.0,0.,12.0
1979-08-03 21:06:49.810 ,7,0,0.,12.0,0.,12.0,0.,12.0,0.,12.0
1979-08-03 21:07:01.810 ,7,0,0.,12.0,0.,12.0,0.,12.0,0.,12.0
1979-08-03 21:07:13.810 ,4,1,0.,12.0,0.,12.0,0.,12.0,0.,12.0
1979-08-03 21:07:25.810 ,4,1,0.,12.0,0.,12.0,0.,12.0,0.,12.0
1979-08-03 21:07:37.810 ,0,1,0.,12.0,0.,12.0,0.,12.0,0.,12.0
1979-08-03 21:07:49.810 ,0,1,0.,12.0,0.,12.0,0.,12.0,0.,12.0
1979-08-03 21:08:01.810 ,3,1,0.,12.0,0.,12.0,0.,12.0,0.,12.0
1979-08-03 21:08:13.810 ,3,1,0.,12.0,0.,12.0,0.,12.0,0.,12.0
1979-08-03 21:08:25.810 ,7,1,0.,12.0,0.,12.0,0.,12.0,0.,12.0
1979-08-03 21:08:37.810 ,7,1,0.,12.0,0.,12.0,0.,12.0,0.,12.0
1979-08-03 21:08:49.810 ,4,1,0.,12.0,0.,12.0,0.,12.0,0.,12.0
1979-08-03 21:09:01.810 ,4,1,0.,12.0,0.,12.0,0.,12.0,0.,12.0
1979-08-03 21:09:13.810 ,0,1,0.,12.0,0.,12.0,0.,12.0,0.,12.0
1979-08-03 21:09:25.810 ,0,1,0.,12.0,0.,12.0,0.,12.0,0.,12.0
1979-08-03 21:09:37.810 ,3,1,0.,12.0,0.,12.0,0.,12.0,0.,12.0
1979-08-03 21:09:49.810 ,3,1,0.,12.0,0.,12.0,0.,12.0,0.,12.0
1979-08-03 21:10:01.810 ,7,1,0.,12.0,0.,12.0,0.,12.0,0.,12.0
1979-08-03 21:10:13.810 ,7,1,0.,12.0,0.,12.0,0.,12.0,0.,12.0
1979-08-03 21:10:25.810 ,4,1,0.,12.0,0.,12.0,0.,12.0,0.,12.0
1979-08-03 21:10:37.810 ,4,1,0.,12.0,0.,12.0,0.,12.0,0.,12.0
1979-08-03 21:10:49.810 ,0,1,0.,12.0,0.,12.0,0.,12.0,0.,12.0
1979-08-03 21:11:01.810 ,0,1,0.,12.0,0.,12.0,0.,12.0,0.,12.0
1979-08-03 21:11:13.810 ,3,1,0.,12.0,0.,12.0,0.,12.0,0.,12.0
1979-08-03 21:11:25.810 ,3,1,0.,12.0,0.,12.0,0.,12.0,0.,12.0
1979-08-03 21:11:37.810 ,7,1,0.,12.0,0.,12.0,0.,12.0,0.,12.0
1979-08-03 21:11:49.810 ,7,1,0.,12.0,0.,12.0,0.,12.0,0.,12.0
1979-08-03 21:12:01.810 ,4,1,0.,12.0,0.,12.0,0.,12.0,0.,12.0
1979-08-03 21:12:13.810 ,4,1,0.,12.0,0.,12.0,0.,12.0,0.,12.0
1979-08-03 21:12:25.810 ,0,1,0.,12.0,0.,12.0,0.,12.0,0.,12.0
1979-08-03 21:12:37.810 ,0,1,0.,12.0,0.,12.0,0.,12.0,0.,12.0
1979-08-03 21:12:49.810 ,3,1,0.,12.0,0.,12.0,0.,12.0,0.,12.0
1979-08-03 21:13:01.810 ,3,1,0.,12.0,0.,12.0,0.,12.0,0.,12.0
1979-08-03 21:13:13.810 ,7,1,0.,12.0,0.,12.0,0.,12.0,0.,12.0
1979-08-03 21:13:25.810 ,7,1,0.,12.0,0.,12.0,0.,12.0,0.,12.0
1979-08-03 21:13:37.810 ,4,1,0.,12.0,0.,12.0,0.,12.0,0.,12.0
1979-08-03 21:13:49.810 ,4,1,0.,12.0,0.,12.0,0.,12.0,0.,12.0
1979-08-03 21:14:01.810 ,0,1,0.,12.0,0.,12.0,0.,12.0,0.,12.0
1979-08-03 21:14:13.810 ,0,1,0.,12.0,0.,12.0,0.,12.0,0.,12.0
1979-08-03 21:14:25.810 ,3,1,0.,12.0,0.,12.0,0.,12.0,0.,12.0
1979-08-03 21:14:37.810 ,3,1,0.,12.0,0.,12.0,0.,12.0,0.,12.0
1979-08-03 21:14:49.810 ,7,1,0.,12.0,0.,12.0,0.,12.0,0.,12.0
1979-08-03 21:15:01.810 ,7,1,0.,12.0,0.,12.0,0.,12.0,0.,12.0
1979-08-03 21:15:13.810 ,4,1,0.,12.0,0.,12.0,0.,12.0,0.,12.0
1979-08-03 21:15:25.810 ,4,1,0.,12.0,0.,12.0,0.,12.0,0.,12.0
1979-08-03 21:15:37.810 ,0,1,0.,12.0,0.,12.0,0.,12.0,0.,12.0
1979-08-03 21:15:49.810 ,0,1,0.,12.0,0.,12.0,0.,12.0,0.,12.0
1979-08-03 21:16:01.810 ,3,1,0.,12.0,0.,12.0,0.,12.0,0.,12.0
1979-08-03 21:16:13.810 ,3,1,0.,12.0,0.,12.0,0.,12.0,0.,12.0
1979-08-03 21:16:25.810 ,7,1,0.,12.0,0.,12.0,0.,12.0,0.,12.0
1979-08-03 21:16:37.810 ,7,1,0.,12.0,0.,12.0,0.,12.0,0.,12.0
1979-08-03 21:16:49.810 ,4,1,0.,12.0,0.,12.0,0.,12.0,0.,12.0
1979-08-03 21:17:01.810 ,4,1,0.,12.0,0.,12.0,0.,12.0,0.,12.0
1979-08-03 21:17:13.810 ,0,1,0.,12.0,0.,12.0,0.,12.0,0.,12.0
1979-08-03 21:17:25.810 ,0,1,0.,12.0,0.,12.0,0.,12.0,0.,12.0
1979-08-03 21:17:37.810 ,0,0,0.,12.0,0.,12.0,0.,12.0,0.,12.0
1979-08-03 21:17:49.810 ,0,0,0.,12.0,0.,12.0,0.,12.0,0.,12.0
1979-08-03 21:18:01.810 ,0,0,0.,12.0,0.,12.0,0.,12.0,0.,12.0
1979-08-03 21:18:13.810 ,0,0,0.,12.0,0.,12.0,0.,12.0,0.,12.0
1979-08-03 21:18:25.810 ,5,1,0.,12.0,0.,12.0,0.,12.0,0.,12.0
1979-08-03 21:18:37.810 ,5,1,0.,12.0,0.,12.0,0.,12.0,0.,12.0
1979-08-03 21:18:49.810 ,5,0,0.,12.0,0.,12.0,0.,12.0,0.,12.0
1979-08-03 21:19:01.810 ,5,0,0.,12.0,0.,12.0,0.,12.0,0.,12.0
1979-08-03 21:19:13.810 ,4,1,0.,12.0,0.,12.0,0.,12.0,0.,12.0
1979-08-03 21:19:25.810 ,4,1,0.,12.0,0.,12.0,0.,12.0,0.,12.0
1979-08-03 21:19:37.810 ,4,0,0.,12.0,0.,12.0,0.,12.0,0.,12.0
1979-08-03 21:19:49.810 ,4,0,0.,12.0,0.,12.0,0.,12.0,0.,12.0
1979-08-03 21:20:01.810 ,3,1,0.,12.0,0.,12.0,0.,12.0,0.,12.0
1979-08-03 21:20:13.810 ,3,1,0.,12.0,0.,12.0,0.,12.0,0.,12.0
1979-08-03 21:20:25.810 ,3,0,0.,12.0,0.,12.0,0.,12.0,0.,12.0
1979-08-03 21:20:37.810 ,3,0,0.,12.0,0.,12.0,0.,12.0,0.,12.0
1979-08-03 21:20:49.810 ,2,1,0.,12.0,0.,12.0,0.,12.0,0.,12.0
1979-08-03 21:21:01.810 ,2,1,0.,12.0,0.,12.0,0.,12.0,0.,12.0
1979-08-03 21:21:13.810 ,2,0,0.,12.0,0.,12.0,0.,12.0,0.,12.0
1979-08-03 21:21:25.810 ,2,0,0.,12.0,0.,12.0,0.,12.0,0.,12.0
1979-08-03 21:21:37.810 ,1,1,0.,12.0,0.,12.0,0.,12.0,0.,12.0
1979-08-03 21:21:49.810 ,1,1,0.,12.0,0.,12.0,0.,12.0,0.,12.0
1979-08-03 21:22:01.810 ,1,0,0.,12.0,0.,12.0,0.,12.0,0.,12.0
1979-08-03 21:22:13.810 ,1,0,0.,12.0,0.,12.0,0.,12.0,0.,12.0
1979-08-03 21:22:25.810 ,0,1,0.,12.0,0.,12.0,0.,12.0,0.,12.0
1979-08-03 21:22:37.810 ,0,1,0.,12.0,0.,12.0,0.,12.0,0.,12.0
1979-08-03 21:22:49.810 ,0,0,0.,12.0,0.,12.0,0.,12.0,0.,12.0
1979-08-03 21:23:01.810 ,0,0,0.,12.0,0.,12.0,0.,12.0,0.,12.0
1979-08-03 21:23:13.810 ,0,1,0.,12.0,0.,12.0,0.,12.0,0.,12.0
1979-08-03 21:23:25.810 ,0,1,0.,12.0,0.,12.0,0.,12.0,0.,12.0
1979-08-03 21:23:37.810 ,0,0,0.,12.0,0.,12.0,0.,12.0,0.,12.0
1979-08-03 21:23:49.810 ,0,0,0.,12.0,0.,12.0,0.,12.0,0.,12.0
1979-08-03 21:24:01.810 ,1,1,0.,12.0,0.,12.0,0.,12.0,0.,12.0
1979-08-03 21:24:13.810 ,1,1,0.,12.0,0.,12.0,0.,12.0,0.,12.0
1979-08-03 21:24:25.810 ,1,0,0.,12.0,0.,12.0,0.,12.0,0.,12.0
1979-08-03 21:24:37.810 ,1,0,0.,12.0,0.,12.0,0.,12.0,0.,12.0
1979-08-03 21:24:49.810 ,2,1,0.,12.0,0.,12.0,0.,12.0,0.,12.0
1979-08-03 21:25:01.810 ,2,1,0.,12.0,0.,12.0,0.,12.0,0.,12.0
1979-08-03 21:25:13.810 ,2,0,0.,12.0,0.,12.0,0.,12.0,0.,12.0
1979-08-03 21:25:25.810 ,2,0,0.,12.0,0.,12.0,0.,12.0,0.,12.0
1979-08-03 21:25:37.810 ,3,1,0.,12.0,0.,12.0,0.,12.0,0.,12.0
1979-08-03 21:25:49.810 ,3,1,0.,12.0,0.,12.0,0.,12.0,0.,12.0
1979-08-03 21:26:01.810 ,3,0,0.,12.0,0.,12.0,0.,12.0,0.,12.0
1979-08-03 21:26:13.810 ,3,0,0.,12.0,0.,12.0,0.,12.0,0.,12.0
1979-08-03 21:26:25.810 ,4,1,0.,12.0,0.,12.0,0.,12.0,0.,12.0
1979-08-03 21:26:37.810 ,4,1,0.,12.0,0.,12.0,0.,12.0,0.,12.0
1979-08-03 21:26:49.810 ,4,0,0.,12.0,0.,12.0,0.,12.0,0.,12.0
1979-08-03 21:27:01.810 ,4,0,0.,12.0,0.,12.0,0.,12.0,0.,12.0
1979-08-03 21:27:13.810 ,5,1,0.,12.0,0.,12.0,0.,12.0,0.,12.0
1979-08-03 21:27:25.810 ,5,1,0.,12.0,0.,12.0,0.,12.0,0.,12.0
1979-08-03 21:27:37.810 ,5,0,0.,12.0,0.,12.0,0.,12.0,0.,12.0
1979-08-03 21:27:49.810 ,5,0,0.,12.0,0.,12.0,0.,12.0,0.,12.0
1979-08-03 21:28:01.810 ,6,1,0.,12.0,0.,12.0,0.,12.0,0.,12.0
1979-08-03 21:28:13.810 ,6,1,0.,12.0,0.,12.0,0.,12.0,0.,12.0
1979-08-03 21:28:25.810 ,6,0,0.,12.0,0.,12.0,0.,12.0,0.,12.0
1979-08-03 21:28:37.810 ,6,0,0.,12.0,0.,12.0,0.,12.0,0.,12.0
1979-08-03 21:28:49.810 ,7,1,0.,12.0,0.,12.0,0.,12.0,0.,12.0
1979-08-03 21:29:01.810 ,7,1,0.,12.0,0.,12.0,0.,12.0,0.,12.0
1979-08-03 21:29:13.810 ,7,0,0.,12.0,0.,12.0,0.,12.0,0.,12.0
1979-08-03 21:29:25.810 ,7,0,0.,12.0,0.,12.0,0.,12.0,0.,12.0
1979-08-03 21:29:37.810 ,7,1,0.,12.0,0.,12.0,0.,12.0,0.,12.0
1979-08-03 21:29:49.810 ,7,1,0.,12.0,0.,12.0,0.,12.0,0.,12.0
1979-08-03 21:30:01.810 ,7,0,0.,12.0,0.,12.0,0.,12.0,0.,12.0
1979-08-03 21:30:13.810 ,7,0,0.,12.0,0.,12.0,0.,12.0,0.,12.0
1979-08-03 21:30:25.810 ,6,1,0.,12.0,0.,12.0,0.,12.0,0.,12.0
1979-08-03 21:30:37.810 ,6,1,0.,12.0,0.,12.0,0.,12.0,0.,12.0
1979-08-03 21:30:49.810 ,6,0,0.,12.0,0.,12.0,0.,12.0,0.,12.0
1979-08-03 21:31:01.810 ,6,0,0.,12.0,0.,12.0,0.,12.0,0.,12.0
1979-08-03 21:31:13.810 ,5,1,0.,12.0,0.,12.0,0.,12.0,0.,12.0
1979-08-03 21:31:25.810 ,5,1,0.,12.0,0.,12.0,0.,12.0,0.,12.0
1979-08-03 21:31:37.810 ,5,0,0.,12.0,0.,12.0,0.,12.0,0.,12.0
1979-08-03 21:31:49.810 ,5,0,0.,12.0,0.,12.0,0.,12.0,0.,12.0
1979-08-03 21:32:01.810 ,4,1,0.,12.0,0.,12.0,0.,12.0,0.,12.0
1979-08-03 21:32:13.810 ,4,1,0.,12.0,0.,12.0,0.,12.0,0.,12.0
1979-08-03 21:32:25.810 ,4,0,0.,12.0,0.,12.0,0.,12.0,0.,12.0
1979-08-03 21:32:37.810 ,4,0,0.,12.0,0.,12.0,0.,12.0,0.,12.0
1979-08-03 21:32:49.810 ,3,1,0.,12.0,0.,12.0,0.,12.0,0.,12.0
1979-08-03 21:33:01.810 ,3,1,0.,12.0,0.,12.0,0.,12.0,0.,12.0
1979-08-03 21:33:13.810 ,3,0,0.,12.0,0.,12.0,0.,12.0,0.,12.0
1979-08-03 21:33:25.810 ,3,0,0.,12.0,0.,12.0,0.,12.0,0.,12.0
1979-08-03 21:33:37.810 ,2,1,0.,12.0,0.,12.0,0.,12.0,0.,12.0
1979-08-03 21:33:49.810 ,2,1,0.,12.0,0.,12.0,0.,12.0,0.,12.0
1979-08-03 21:34:01.810 ,2,0,0.,12.0,0.,12.0,0.,12.0,0.,12.0
1979-08-03 21:34:13.810 ,2,0,0.,12.0,0.,12.0,0.,12.0,0.,12.0
1979-08-03 21:34:25.810 ,1,1,0.,12.0,0.,12.0,0.,12.0,0.,12.0
1979-08-03 21:34:37.810 ,1,1,0.,12.0,0.,12.0,0.,12.0,0.,12.0
1979-08-03 21:34:49.810 ,1,0,0.,12.0,0.,12.0,0.,12.0,0.,12.0
1979-08-03 21:35:01.810 ,1,0,0.,12.0,0.,12.0,0.,12.0,0.,12.0
1979-08-03 21:35:13.810 ,0,1,0.,12.0,0.,12.0,0.,12.0,0.,12.0
1979-08-03 21:35:25.810 ,0,1,0.,12.0,0.,12.0,0.,12.0,0.,12.0
1979-08-03 21:35:37.810 ,0,0,0.,12.0,0.,12.0,0.,12.0,0.,12.0
1979-08-03 21:35:49.810 ,0,0,0.,12.0,0.,12.0,0.,12.0,0.,12.0
1979-08-03 21:36:01.810 ,0,1,0.,12.0,0.,12.0,0.,12.0,0.,12.0
1979-08-03 21:36:13.810 ,0,1,0.,12.0,0.,12.0,0.,12.0,0.,12.0
1979-08-03 21:36:25.810 ,0,0,0.,12.0,0.,12.0,0.,12.0,0.,12.0
1979-08-03 21:36:37.810 ,0,0,0.,12.0,0.,12.0,0.,12.0,0.,12.0
1979-08-03 21:36:49.810 ,1,1,0.,12.0,0.,12.0,0.,12.0,0.,12.0
1979-08-03 21:37:01.810 ,1,1,0.,12.0,0.,12.0,0.,12.0,0.,12.0
1979-08-03 21:37:13.810 ,1,0,0.,12.0,0.,12.0,0.,12.0,0.,12.0
1979-08-03 21:37:25.810 ,1,0,0.,12.0,0.,12.0,0.,12.0,0.,12.0
1979-08-03 21:37:37.810 ,2,1,0.,12.0,0.,12.0,0.,12.0,0.,12.0
1979-08-03 21:37:49.810 ,2,1,0.,12.0,0.,12.0,0.,12.0,0.,12.0
1979-08-03 21:38:01.810 ,2,0,0.,12.0,0.,12.0,0.,12.0,0.,12.0
1979-08-03 21:38:13.810 ,2,0,0.,12.0,0.,12.0,0.,12.0,0.,12.0
1979-08-03 21:38:25.810 ,3,1,0.,12.0,0.,12.0,0.,12.0,0.,12.0
1979-08-03 21:38:37.810 ,3,1,0.,12.0,0.,12.0,0.,12.0,0.,12.0
1979-08-03 21:38:49.810 ,3,0,0.,12.0,0.,12.0,0.,12.0,0.,12.0
1979-08-03 21:39:01.810 ,3,0,0.,12.0,0.,12.0,0.,12.0,0.,12.0
1979-08-03 21:39:13.810 ,4,1,0.,12.0,0.,12.0,0.,12.0,0.,12.0
1979-08-03 21:39:25.810 ,4,1,0.,12.0,0.,12.0,0.,12.0,0.,12.0
1979-08-03 21:39:37.810 ,4,0,0.,12.0,0.,12.0,0.,12.0,0.,12.0
1979-08-03 21:39:49.810 ,4,0,0.,12.0,0.,12.0,0.,12.0,0.,12.0
1979-08-03 21:40:01.810 ,5,1,0.,12.0,0.,12.0,0.,12.0,0.,12.0
1979-08-03 21:40:13.810 ,5,1,0.,12.0,0.,12.0,0.,12.0,0.,12.0
1979-08-03 21:40:25.810 ,5,0,0.,12.0,0.,12.0,0.,12.0,0.,12.0
1979-08-03 21:40:37.810 ,5,0,0.,12.0,0.,12.0,0.,12.0,0.,12.0
1979-08-03 21:40:49.810 ,6,1,0.,12.0,0.,12.0,0.,12.0,0.,12.0
1979-08-03 21:41:01.810 ,6,1,0.,12.0,0.,12.0,0.,12.0,0.,12.0
1979-08-03 21:41:13.810 ,6,0,0.,12.0,0.,12.0,0.,12.0,0.,12.0
1979-08-03 21:41:25.810 ,6,0,0.,12.0,0.,12.0,0.,12.0,0.,12.0
1979-08-03 21:41:37.810 ,7,1,0.,12.0,0.,12.0,0.,12.0,0.,12.0
1979-08-03 21:41:49.810 ,7,1,0.,12.0,0.,12.0,0.,12.0,0.,12.0
1979-08-03 21:42:01.810 ,7,0,0.,12.0,0.,12.0,0.,12.0,0.,12.0
1979-08-03 21:42:13.810 ,7,0,0.,12.0,0.,12.0,0.,12.0,0.,12.0
1979-08-03 21:42:25.810 ,7,1,0.,12.0,0.,12.0,0.,12.0,0.,12.0
1979-08-03 21:42:37.810 ,7,1,0.,12.0,0.,12.0,0.,12.0,0.,12.0
1979-08-03 21:42:49.810 ,7,0,0.,12.0,0.,12.0,0.,12.0,0.,12.0
1979-08-03 21:43:01.810 ,7,0,0.,12.0,0.,12.0,0.,12.0,0.,12.0
1979-08-03 21:43:13.810 ,6,1,0.,12.0,0.,12.0,0.,12.0,0.,12.0
1979-08-03 21:43:25.810 ,6,1,0.,12.0,0.,12.0,0.,12.0,0.,12.0
1979-08-03 21:43:37.810 ,6,0,0.,12.0,0.,12.0,0.,12.0,0.,12.0
1979-08-03 21:43:49.810 ,6,0,0.,12.0,0.,12.0,0.,12.0,0.,12.0
1979-08-03 21:44:01.810 ,5,1,0.,12.0,0.,12.0,0.,12.0,0.,12.0
1979-08-03 21:44:13.810 ,5,1,0.,12.0,0.,12.0,0.,12.0,0.,12.0
1979-08-03 21:44:25.810 ,5,0,0.,12.0,0.,12.0,0.,12.0,0.,12.0
1979-08-03 21:44:37.810 ,5,0,0.,12.0,0.,12.0,0.,12.0,0.,12.0
1979-08-03 21:44:49.810 ,4,1,0.,12.0,0.,12.0,0.,12.0,0.,12.0
1979-08-03 21:45:01.810 ,4,1,0.,12.0,0.,12.0,0.,12.0,0.,12.0
1979-08-03 21:45:13.810 ,4,0,0.,12.0,0.,12.0,0.,12.0,0.,12.0
1979-08-03 21:45:25.810 ,4,0,0.,12.0,0.,12.0,0.,12.0,0.,12.0
1979-08-03 21:45:37.810 ,3,1,0.,12.0,0.,12.0,0.,12.0,0.,12.0
1979-08-03 21:45:49.810 ,3,1,0.,12.0,0.,12.0,0.,12.0,0.,12.0
1979-08-03 21:46:01.810 ,3,0,0.,12.0,0.,12.0,0.,12.0,0.,12.0
1979-08-03 21:46:13.810 ,3,0,0.,12.0,0.,12.0,0.,12.0,0.,12.0
1979-08-03 21:46:25.810 ,2,1,0.,12.0,0.,12.0,0.,12.0,0.,12.0
1979-08-03 21:46:37.810 ,2,1,0.,12.0,0.,12.0,0.,12.0,0.,12.0
1979-08-03 21:46:49.810 ,2,0,0.,12.0,0.,12.0,0.,12.0,0.,12.0
1979-08-03 21:47:01.810 ,2,0,0.,12.0,0.,12.0,0.,12.0,0.,12.0
1979-08-03 21:47:13.810 ,1,1,0.,12.0,0.,12.0,0.,12.0,0.,12.0
1979-08-03 21:47:25.810 ,1,1,0.,12.0,0.,12.0,0.,12.0,0.,12.0
1979-08-03 21:47:37.810 ,1,0,0.,12.0,0.,12.0,0.,12.0,0.,12.0
1979-08-03 21:47:49.810 ,1,0,0.,12.0,0.,12.0,0.,12.0,0.,12.0
1979-08-03 21:48:01.810 ,0,1,0.,12.0,0.,12.0,0.,12.0,0.,12.0
1979-08-03 21:48:13.810 ,0,1,0.,12.0,0.,12.0,0.,12.0,0.,12.0
1979-08-03 21:48:25.810 ,0,0,0.,12.0,0.,12.0,0.,12.0,0.,12.0
1979-08-03 21:48:37.810 ,0,0,0.,12.0,0.,12.0,0.,12.0,0.,12.0
1979-08-03 21:48:49.810 ,0,1,0.,12.0,0.,12.0,0.,12.0,0.,12.0
1979-08-03 21:49:01.810 ,0,1,0.,12.0,0.,12.0,0.,12.0,0.,12.0
1979-08-03 21:49:13.810 ,0,0,0.,12.0,0.,12.0,0.,12.0,0.,12.0
1979-08-03 21:49:25.810 ,0,0,0.,12.0,0.,12.0,0.,12.0,0.,12.0
1979-08-03 21:49:37.810 ,1,1,0.,12.0,0.,12.0,0.,12.0,0.,12.0
1979-08-03 21:49:49.810 ,1,1,0.,12.0,0.,12.0,0.,12.0,0.,12.0
1979-08-03 21:50:01.810 ,1,0,0.,12.0,0.,12.0,0.,12.0,0.,12.0
1979-08-03 21:50:13.810 ,1,0,0.,12.0,0.,12.0,0.,12.0,0.,12.0
1979-08-03 21:50:25.810 ,2,1,0.,12.0,0.,12.0,0.,12.0,0.,12.0
1979-08-03 21:50:37.810 ,2,1,0.,12.0,0.,12.0,0.,12.0,0.,12.0
1979-08-03 21:50:49.810 ,2,0,0.,12.0,0.,12.0,0.,12.0,0.,12.0
1979-08-03 21:51:01.810 ,2,0,0.,12.0,0.,12.0,0.,12.0,0.,12.0
1979-08-03 21:51:13.810 ,3,1,0.,12.0,0.,12.0,0.,12.0,0.,12.0
1979-08-03 21:51:25.810 ,3,1,0.,12.0,0.,12.0,0.,12.0,0.,12.0
1979-08-03 21:51:37.810 ,3,0,0.,12.0,0.,12.0,0.,12.0,0.,12.0
1979-08-03 21:51:49.810 ,3,0,0.,12.0,0.,12.0,0.,12.0,0.,12.0
1979-08-03 21:52:01.810 ,4,1,0.,12.0,0.,12.0,0.,12.0,0.,12.0
1979-08-03 21:52:13.810 ,4,1,0.,12.0,0.,12.0,0.,12.0,0.,12.0
1979-08-03 21:52:25.810 ,4,0,0.,12.0,0.,12.0,0.,12.0,0.,12.0
1979-08-03 21:52:37.810 ,4,0,0.,12.0,0.,12.0,0.,12.0,0.,12.0
1979-08-03 21:52:49.810 ,5,1,0.,12.0,0.,12.0,0.,12.0,0.,12.0
1979-08-03 21:53:01.810 ,5,1,0.,12.0,0.,12.0,0.,12.0,0.,12.0
1979-08-03 21:53:13.810 ,5,0,0.,12.0,0.,12.0,0.,12.0,0.,12.0
1979-08-03 21:53:25.810 ,5,0,0.,12.0,0.,12.0,0.,12.0,0.,12.0
1979-08-03 21:53:37.810 ,6,1,0.,12.0,0.,12.0,0.,12.0,0.,12.0
1979-08-03 21:53:49.810 ,6,1,0.,12.0,0.,12.0,0.,12.0,0.,12.0
1979-08-03 21:54:01.810 ,6,0,0.,12.0,0.,12.0,0.,12.0,0.,12.0
1979-08-03 21:54:13.810 ,6,0,0.,12.0,0.,12.0,0.,12.0,0.,12.0
1979-08-03 21:54:25.810 ,7,0,0.,12.0,0.,12.0,0.,12.0,0.,12.0
1979-08-03 21:54:37.810 ,7,0,0.,12.0,0.,12.0,0.,12.0,0.,12.0
1979-08-03 21:54:49.810 ,7,0,0.,12.0,0.,12.0,0.,12.0,0.,12.0
1979-08-03 21:55:01.810 ,7,0,0.,12.0,0.,12.0,0.,12.0,0.,12.0
1979-08-03 21:55:13.810 ,4,1,0.,12.0,0.,12.0,0.,12.0,0.,12.0
1979-08-03 21:55:25.810 ,4,1,0.,12.0,0.,12.0,0.,12.0,0.,12.0
1979-08-03 21:55:37.810 ,0,1,0.,12.0,0.,12.0,0.,12.0,0.,12.0
1979-08-03 21:55:49.810 ,0,1,0.,12.0,0.,12.0,0.,12.0,0.,12.0
1979-08-03 21:56:01.810 ,3,1,0.,12.0,0.,12.0,0.,12.0,0.,12.0
1979-08-03 21:56:13.810 ,3,1,0.,12.0,0.,12.0,0.,12.0,0.,12.0
1979-08-03 21:56:25.810 ,7,1,0.,12.0,0.,12.0,0.,12.0,0.,12.0
1979-08-03 21:56:37.810 ,7,1,0.,12.0,0.,12.0,0.,12.0,0.,12.0
1979-08-03 21:56:49.810 ,4,1,0.,12.0,0.,12.0,0.,12.0,0.,12.0
1979-08-03 21:57:01.810 ,4,1,0.,12.0,0.,12.0,0.,12.0,0.,12.0
1979-08-03 21:57:13.810 ,0,1,0.,12.0,0.,12.0,0.,12.0,0.,12.0
1979-08-03 21:57:25.810 ,0,1,0.,12.0,0.,12.0,0.,12.0,0.,12.0
1979-08-03 21:57:37.810 ,3,1,0.,12.0,0.,12.0,0.,12.0,0.,12.0
1979-08-03 21:57:49.810 ,3,1,0.,12.0,0.,12.0,0.,12.0,0.,12.0
1979-08-03 21:58:01.810 ,7,1,0.,12.0,0.,12.0,0.,12.0,0.,12.0
1979-08-03 21:58:13.810 ,7,1,0.,12.0,0.,12.0,0.,12.0,0.,12.0
1979-08-03 21:58:25.810 ,4,1,0.,12.0,0.,12.0,0.,12.0,0.,12.0
1979-08-03 21:58:37.810 ,4,1,0.,12.0,0.,12.0,0.,12.0,0.,12.0
1979-08-03 21:58:49.810 ,0,1,0.,12.0,0.,12.0,0.,12.0,0.,12.0
1979-08-03 21:59:01.810 ,0,1,0.,12.0,0.,12.0,0.,12.0,0.,12.0
1979-08-03 21:59:13.810 ,3,1,0.,12.0,0.,12.0,0.,12.0,0.,12.0
1979-08-03 21:59:25.810 ,3,1,0.,12.0,0.,12.0,0.,12.0,0.,12.0
1979-08-03 21:59:37.810 ,7,1,0.,12.0,0.,12.0,0.,12.0,0.,12.0
1979-08-03 21:59:49.810 ,7,1,0.,12.0,0.,12.0,0.,12.0,0.,12.0
1979-08-03 22:00:01.810 ,4,1,0.,12.0,0.,12.0,0.,12.0,0.,12.0
1979-08-03 22:00:13.810 ,4,1,0.,12.0,0.,12.0,0.,12.0,0.,12.0
1979-08-03 22:00:25.810 ,0,1,0.,12.0,0.,12.0,0.,12.0,0.,12.0
1979-08-03 22:00:37.810 ,0,1,0.,12.0,0.,12.0,0.,12.0,0.,12.0
1979-08-03 22:00:49.810 ,3,1,0.,12.0,0.,12.0,0.,12.0,0.,12.0
1979-08-03 22:01:01.810 ,3,1,0.,12.0,0.,12.0,0.,12.0,0.,12.0
1979-08-03 22:01:13.810 ,7,1,0.,12.0,0.,12.0,0.,12.0,0.,12.0
1979-08-03 22:01:25.810 ,7,1,0.,12.0,0.,12.0,0.,12.0,0.,12.0
1979-08-03 22:01:37.810 ,4,1,0.,12.0,0.,12.0,0.,12.0,0.,12.0
1979-08-03 22:01:49.810 ,4,1,0.,12.0,0.,12.0,0.,12.0,0.,12.0
1979-08-03 22:02:01.810 ,0,1,0.,12.0,0.,12.0,0.,12.0,0.,12.0
1979-08-03 22:02:13.810 ,0,1,0.,12.0,0.,12.0,0.,12.0,0.,12.0
1979-08-03 22:02:25.810 ,3,1,0.,12.0,0.,12.0,0.,12.0,0.,12.0
1979-08-03 22:02:37.810 ,3,1,0.,12.0,0.,12.0,0.,12.0,0.,12.0
1979-08-03 22:02:49.810 ,7,1,0.,12.0,0.,12.0,0.,12.0,0.,12.0
1979-08-03 22:03:01.810 ,7,1,0.,12.0,0.,12.0,0.,12.0,0.,12.0
1979-08-03 22:03:13.810 ,4,1,0.,12.0,0.,12.0,0.,12.0,0.,12.0
1979-08-03 22:03:25.810 ,4,1,0.,12.0,0.,12.0,0.,12.0,0.,12.0
1979-08-03 22:03:37.810 ,0,1,0.,12.0,0.,12.0,0.,12.0,0.,12.0
1979-08-03 22:03:49.810 ,0,1,0.,12.0,0.,12.0,0.,12.0,0.,12.0
1979-08-03 22:04:01.810 ,3,1,0.,12.0,0.,12.0,0.,12.0,0.,12.0
1979-08-03 22:04:13.810 ,3,1,0.,12.0,0.,12.0,0.,12.0,0.,12.0
1979-08-03 22:04:25.810 ,7,1,0.,12.0,0.,12.0,0.,12.0,0.,12.0
1979-08-03 22:04:37.810 ,7,1,0.,12.0,0.,12.0,0.,12.0,0.,12.0
1979-08-03 22:04:49.810 ,4,1,0.,12.0,0.,12.0,0.,12.0,0.,12.0
1979-08-03 22:05:01.810 ,4,1,0.,12.0,0.,12.0,0.,12.0,0.,12.0
1979-08-03 22:05:13.810 ,0,1,0.,12.0,0.,12.0,0.,12.0,0.,12.0
1979-08-03 22:05:25.810 ,0,1,0.,12.0,0.,12.0,0.,12.0,0.,12.0
1979-08-03 22:05:37.810 ,0,0,0.,12.0,0.,12.0,0.,12.0,0.,12.0
1979-08-03 22:05:49.810 ,0,0,0.,12.0,0.,12.0,0.,12.0,0.,12.0
1979-08-03 22:06:01.810 ,0,0,0.,12.0,0.,12.0,0.,12.0,0.,12.0
1979-08-03 22:06:13.810 ,0,0,0.,12.0,0.,12.0,0.,12.0,0.,12.0
1979-08-03 22:06:25.810 ,5,1,0.,12.0,0.,12.0,0.,12.0,0.,12.0
1979-08-03 22:06:37.810 ,5,1,0.,12.0,0.,12.0,0.,12.0,0.,12.0
1979-08-03 22:06:49.810 ,5,0,0.,12.0,0.,12.0,0.,12.0,0.,12.0
1979-08-03 22:07:01.810 ,5,0,0.,12.0,0.,12.0,0.,12.0,0.,12.0
1979-08-03 22:07:13.810 ,4,1,0.,12.0,0.,12.0,0.,12.0,0.,12.0
1979-08-03 22:07:25.810 ,4,1,0.,12.0,0.,12.0,0.,12.0,0.,12.0
1979-08-03 22:07:37.810 ,4,0,0.,12.0,0.,12.0,0.,12.0,0.,12.0
1979-08-03 22:07:49.810 ,4,0,0.,12.0,0.,12.0,0.,12.0,0.,12.0
1979-08-03 22:08:01.810 ,3,1,0.,12.0,0.,12.0,0.,12.0,0.,12.0
1979-08-03 22:08:13.810 ,3,1,0.,12.0,0.,12.0,0.,12.0,0.,12.0
1979-08-03 22:08:25.810 ,3,0,0.,12.0,0.,12.0,0.,12.0,0.,12.0
1979-08-03 22:08:37.810 ,3,0,0.,12.0,0.,12.0,0.,12.0,0.,12.0
1979-08-03 22:08:49.810 ,2,1,0.,12.0,0.,12.0,0.,12.0,0.,12.0
1979-08-03 22:09:01.810 ,2,1,0.,12.0,0.,12.0,0.,12.0,0.,12.0
1979-08-03 22:09:13.810 ,2,0,0.,12.0,0.,12.0,0.,12.0,0.,12.0
1979-08-03 22:09:25.810 ,2,0,0.,12.0,0.,12.0,0.,12.0,0.,12.0
1979-08-03 22:09:37.810 ,1,1,0.,12.0,0.,12.0,0.,12.0,0.,12.0
1979-08-03 22:09:49.810 ,1,1,0.,12.0,0.,12.0,0.,12.0,0.,12.0
1979-08-03 22:10:01.810 ,1,0,0.,12.0,0.,12.0,0.,12.0,0.,12.0
1979-08-03 22:10:13.810 ,1,0,0.,12.0,0.,12.0,0.,12.0,0.,12.0
1979-08-03 22:10:25.810 ,0,1,0.,12.0,0.,12.0,0.,12.0,0.,12.0
1979-08-03 22:10:37.810 ,0,1,0.,12.0,0.,12.0,0.,12.0,0.,12.0
1979-08-03 22:10:49.810 ,0,0,0.,12.0,0.,12.0,0.,12.0,0.,12.0
1979-08-03 22:11:01.810 ,0,0,0.,12.0,0.,12.0,0.,12.0,0.,12.0
1979-08-03 22:11:13.810 ,0,1,0.,12.0,0.,12.0,0.,12.0,0.,12.0
1979-08-03 22:11:25.810 ,0,1,0.,12.0,0.,12.0,0.,12.0,0.,12.0
1979-08-03 22:11:37.810 ,0,0,0.,12.0,0.,12.0,0.,12.0,0.,12.0
1979-08-03 22:11:49.810 ,0,0,0.,12.0,0.,12.0,0.,12.0,0.,12.0
1979-08-03 22:12:01.810 ,1,1,0.,12.0,0.,12.0,0.,12.0,0.,12.0
1979-08-03 22:12:13.810 ,1,1,0.,12.0,0.,12.0,0.,12.0,0.,12.0
1979-08-03 22:12:25.810 ,1,0,0.,12.0,0.,12.0,0.,12.0,0.,12.0
1979-08-03 22:12:37.810 ,1,0,0.,12.0,0.,12.0,0.,12.0,0.,12.0
1979-08-03 22:12:49.810 ,2,1,0.,12.0,0.,12.0,0.,12.0,0.,12.0
1979-08-03 22:13:01.810 ,2,1,0.,12.0,0.,12.0,0.,12.0,0.,12.0
1979-08-03 22:13:13.810 ,2,0,0.,12.0,0.,12.0,0.,12.0,0.,12.0
1979-08-03 22:13:25.810 ,2,0,0.,12.0,0.,12.0,0.,12.0,0.,12.0
1979-08-03 22:13:37.810 ,3,1,0.,12.0,0.,12.0,0.,12.0,0.,12.0
1979-08-03 22:13:49.810 ,3,1,0.,12.0,0.,12.0,0.,12.0,0.,12.0
1979-08-03 22:14:01.810 ,3,0,0.,12.0,0.,12.0,0.,12.0,0.,12.0
1979-08-03 22:14:13.810 ,3,0,0.,12.0,0.,12.0,0.,12.0,0.,12.0
1979-08-03 22:14:25.810 ,4,1,0.,12.0,0.,12.0,0.,12.0,0.,12.0
1979-08-03 22:14:37.810 ,4,1,0.,12.0,0.,12.0,0.,12.0,0.,12.0
1979-08-03 22:14:49.810 ,4,0,0.,12.0,0.,12.0,0.,12.0,0.,12.0
1979-08-03 22:15:01.810 ,4,0,0.,12.0,0.,12.0,0.,12.0,0.,12.0
1979-08-03 22:15:13.810 ,5,1,0.,12.0,0.,12.0,0.,12.0,0.,12.0
1979-08-03 22:15:25.810 ,5,1,0.,12.0,0.,12.0,0.,12.0,0.,12.0
1979-08-03 22:15:37.810 ,5,0,0.,12.0,0.,12.0,0.,12.0,0.,12.0
1979-08-03 22:15:49.810 ,5,0,0.,12.0,0.,12.0,0.,12.0,0.,12.0
1979-08-03 22:16:01.810 ,6,1,0.,12.0,0.,12.0,0.,12.0,0.,12.0
1979-08-03 22:16:13.810 ,6,1,0.,12.0,0.,12.0,0.,12.0,0.,12.0
1979-08-03 22:16:25.810 ,6,0,0.,12.0,0.,12.0,0.,12.0,0.,12.0
1979-08-03 22:16:37.810 ,6,0,0.,12.0,0.,12.0,0.,12.0,0.,12.0
1979-08-03 22:16:49.810 ,7,1,0.,12.0,0.,12.0,0.,12.0,0.,12.0
1979-08-03 22:17:01.810 ,7,1,0.,12.0,0.,12.0,0.,12.0,0.,12.0
1979-08-03 22:17:13.810 ,7,0,0.,12.0,0.,12.0,0.,12.0,0.,12.0
1979-08-03 22:17:25.810 ,7,0,0.,12.0,0.,12.0,0.,12.0,0.,12.0